| time (UTC) | temp F | wind direction | speed knots | gust knots | rain 1hr in | rain 24hr in | rain mn in | humidity % | barometer mb |
| 20260506001554 | 81 | 154 | 0.0 | 2.6 | 0.00 | 0.00 | 0.00 | 78 | 1005.2 |
| 20260506000055 | 81 | 0 | 0.9 | 3.5 | 0.00 | 0.00 | 0.00 | 77 | 1005.2 |
| 20260505234557 | 82 | 0 | 0.9 | 4.3 | 0.00 | 0.00 | 0.00 | 77 | 1005.1 |
| 20260505233053 | 82 | 57 | 0.0 | 3.5 | 0.00 | 0.00 | 0.00 | 76 | 1004.9 |
| 20260505231552 | 82 | 0 | 0.0 | 3.5 | 0.00 | 0.00 | 0.00 | 76 | 1004.9 |
| 20260505230104 | 83 | 117 | 0.0 | 2.6 | 0.00 | 0.00 | 0.00 | 76 | 1005.0 |
| 20260505224553 | 83 | 0 | 0.9 | 5.2 | 0.00 | 0.00 | 0.00 | 75 | 1005.1 |
| 20260505223108 | 83 | 113 | 0.9 | 3.5 | 0.00 | 0.00 | 0.00 | 75 | 1004.9 |
| 20260505221557 | 83 | 0 | 0.9 | 5.2 | 0.00 | 0.00 | 0.00 | 76 | 1005.0 |
| 20260505220056 | 83 | 148 | 0.9 | 3.5 | 0.00 | 0.00 | 0.00 | 76 | 1005.2 |
| 20260505214553 | 84 | 255 | 0.9 | 3.5 | 0.00 | 0.00 | 0.00 | 74 | 1005.2 |
| 20260505213100 | 84 | 198 | 0.9 | 5.2 | 0.00 | 0.00 | 0.00 | 73 | 1005.5 |
| 20260505211555 | 84 | 212 | 0.0 | 3.5 | 0.00 | 0.00 | 0.00 | 75 | 1005.3 |
| 20260505210056 | 84 | 132 | 0.9 | 3.5 | 0.00 | 0.00 | 0.00 | 74 | 1005.7 |
| 20260505204601 | 85 | 0 | 0.9 | 3.5 | 0.00 | 0.00 | 0.00 | 72 | 1006.1 |
| 20260505203108 | 84 | 212 | 0.9 | 3.5 | 0.00 | 0.00 | 0.00 | 72 | 1006.1 |
| 20260505201600 | 84 | 168 | 0.9 | 3.5 | 0.00 | 0.00 | 0.00 | 74 | 1006.4 |
| 20260505194610 | 83 | 186 | 0.0 | 3.5 | 0.00 | 0.00 | 0.00 | 75 | 1006.7 |
| 20260505193056 | 83 | 137 | 0.9 | 6.1 | 0.00 | 0.00 | 0.00 | 75 | 1006.8 |
| 20260505191554 | 84 | 298 | 0.9 | 4.3 | 0.00 | 0.00 | 0.00 | 73 | 1007.0 |
| 20260505190054 | 82 | 0 | 0.9 | 3.5 | 0.00 | 0.00 | 0.00 | 76 | 1007.1 |
| 20260505184559 | 82 | 0 | 0.0 | 4.3 | 0.00 | 0.00 | 0.00 | 77 | 1007.2 |
| 20260505183101 | 82 | 128 | 1.7 | 3.5 | 0.00 | 0.00 | 0.00 | 76 | 1007.1 |
| 20260505181557 | 82 | 0 | 0.9 | 5.2 | 0.00 | 0.00 | 0.00 | 76 | 1007.2 |
| 20260505174600 | 81 | 182 | 0.9 | 5.2 | 0.00 | 0.00 | 0.00 | 77 | 1007.5 |
| 20260505173056 | 81 | 201 | 0.9 | 3.5 | 0.00 | 0.00 | 0.00 | 78 | 1007.6 |
| 20260505171553 | 79 | 61 | 0.0 | 4.3 | 0.00 | 0.00 | 0.00 | 80 | 1007.8 |
| 20260505170055 | 80 | 138 | 0.9 | 3.5 | 0.00 | 0.00 | 0.00 | 81 | 1007.7 |
| 20260505164600 | 78 | 135 | 0.9 | 4.3 | 0.00 | 0.00 | 0.00 | 84 | 1007.9 |
| 20260505163056 | 76 | 0 | 0.0 | 3.5 | 0.00 | 0.00 | 0.00 | 87 | 1008.1 |
| 20260505161551 | 75 | 219 | 0.9 | 3.5 | 0.00 | 0.00 | 0.00 | 88 | 1008.1 |
| 20260505153109 | 74 | 0 | 0.0 | 3.5 | 0.00 | 0.00 | 0.00 | 90 | 1008.1 |
| 20260505151557 | 73 | 75 | 0.0 | 1.7 | 0.00 | 0.00 | 0.00 | 91 | 1008.0 |
| 20260505140105 | 71 | 200 | 0.0 | 3.5 | 0.00 | 0.00 | 0.00 | 92 | 1007.8 |
| 20260505130110 | 70 | 249 | 0.0 | 2.6 | 0.00 | 0.00 | 0.00 | 91 | 1007.4 |
| 20260505124608 | 70 | 0 | 0.0 | 1.7 | 0.00 | 0.00 | 0.00 | 91 | 1007.2 |
| 20260505123117 | 70 | 0 | 0.0 | 2.6 | 0.00 | 0.00 | 0.00 | 91 | 1007.5 |
| 20260505121556 | 70 | 184 | 0.0 | 5.2 | 0.00 | 0.00 | 0.00 | 91 | 1007.1 |
| 20260505120055 | 70 | 218 | 0.0 | 3.5 | 0.00 | 0.00 | 0.00 | 91 | 1006.7 |
| 20260505114558 | 70 | 201 | 0.0 | 3.5 | 0.00 | 0.00 | 0.00 | 91 | 1007.0 |
| 20260505113059 | 70 | 0 | 0.9 | 3.5 | 0.00 | 0.00 | 0.00 | 91 | 1006.8 |
| 20260505111558 | 69 | 0 | 0.0 | 3.5 | 0.00 | 0.00 | 0.00 | 91 | 1006.7 |
| 20260505110105 | 69 | 0 | 0.0 | 1.7 | 0.00 | 0.00 | 0.00 | 91 | 1007.1 |
| 20260505101603 | 69 | 196 | 0.0 | 2.6 | 0.00 | 0.00 | 0.00 | 90 | 1006.9 |
| 20260505100057 | 69 | 0 | 0.0 | 1.7 | 0.00 | 0.00 | 0.00 | 90 | 1007.0 |
| 20260505094601 | 69 | 241 | 0.0 | 1.7 | 0.00 | 0.00 | 0.00 | 90 | 1007.1 |
| 20260505093055 | 69 | 0 | 0.0 | 2.6 | 0.00 | 0.00 | 0.00 | 90 | 1007.1 |
| 20260505091559 | 69 | 0 | 0.0 | 5.2 | 0.00 | 0.00 | 0.00 | 89 | 1007.1 |
| 20260505090059 | 69 | 0 | 0.0 | 1.7 | 0.00 | 0.00 | 0.00 | 89 | 1007.2 |
| 20260505084553 | 69 | 0 | 0.0 | 2.6 | 0.00 | 0.00 | 0.00 | 89 | 1007.5 |
| 20260505083057 | 69 | 0 | 0.0 | 2.6 | 0.00 | 0.00 | 0.00 | 88 | 1007.7 |
| 20260505081603 | 69 | 0 | 0.0 | 1.7 | 0.00 | 0.00 | 0.00 | 88 | 1007.9 |
| 20260505080058 | 69 | 0 | 0.0 | 3.5 | 0.00 | 0.00 | 0.00 | 87 | 1007.9 |
| 20260505074610 | 69 | 0 | 0.0 | 1.7 | 0.00 | 0.00 | 0.00 | 87 | 1007.9 |
| 20260505073102 | 69 | 195 | 0.0 | 1.7 | 0.00 | 0.00 | 0.00 | 87 | 1008.2 |
| 20260505071557 | 69 | 202 | 0.0 | 1.7 | 0.00 | 0.00 | 0.00 | 86 | 1008.2 |
| 20260505070118 | 69 | 0 | 0.0 | 2.6 | 0.00 | 0.00 | 0.00 | 86 | 1008.5 |
| 20260505064559 | 69 | 200 | 0.0 | 2.6 | 0.00 | 0.00 | 0.00 | 85 | 1008.9 |
| 20260505063103 | 69 | 0 | 0.0 | 2.6 | 0.00 | 0.00 | 0.00 | 85 | 1008.8 |
| 20260505061619 | 69 | 0 | 0.0 | 2.6 | 0.00 | 0.00 | 0.00 | 84 | 1009.1 |
| 20260505060103 | 69 | 0 | 0.0 | 2.6 | 0.00 | 0.00 | 0.00 | 84 | 1008.6 |
| 20260505054625 | 70 | 192 | 0.0 | 2.6 | 0.00 | 0.00 | 0.00 | 83 | 1008.9 |
| 20260505053106 | 70 | 229 | 0.9 | 4.3 | 0.00 | 0.00 | 0.00 | 83 | 1008.9 |
| 20260505051558 | 70 | 122 | 0.9 | 4.3 | 0.00 | 0.00 | 0.00 | 82 | 1008.8 |
| 20260505041554 | 72 | 116 | 0.9 | 3.5 | 0.00 | 0.00 | 0.00 | 80 | 1009.2 |
| 20260505040059 | 72 | 208 | 0.9 | 5.2 | 0.00 | 0.00 | 0.00 | 79 | 1009.0 |
| 20260505034558 | 72 | 117 | 0.9 | 3.5 | 0.00 | 0.00 | 0.00 | 78 | 1009.0 |
| 20260505033056 | 73 | 252 | 0.9 | 4.3 | 0.00 | 0.00 | 0.00 | 77 | 1009.0 |
| 20260505031558 | 73 | 218 | 0.9 | 4.3 | 0.00 | 0.00 | 0.00 | 77 | 1009.0 |
| 20260505030105 | 73 | 0 | 0.9 | 4.3 | 0.00 | 0.00 | 0.00 | 77 | 1009.1 |
| 20260505024608 | 74 | 97 | 0.0 | 4.3 | 0.00 | 0.00 | 0.00 | 76 | 1008.9 |
| 20260505023055 | 74 | 119 | 0.0 | 3.5 | 0.00 | 0.00 | 0.00 | 76 | 1008.7 |
| 20260505021609 | 74 | 0 | 0.0 | 1.7 | 0.00 | 0.00 | 0.00 | 75 | 1008.7 |
| 20260505014603 | 75 | 0 | 0.0 | 2.6 | 0.00 | 0.00 | 0.00 | 73 | 1008.6 |
| 20260505013058 | 76 | 221 | 0.0 | 2.6 | 0.00 | 0.00 | 0.00 | 72 | 1008.5 |
| 20260505011557 | 76 | 0 | 0.0 | 2.6 | 0.00 | 0.00 | 0.00 | 72 | 1008.5 |
| 20260505010056 | 76 | 136 | 0.9 | 4.3 | 0.00 | 0.00 | 0.00 | 71 | 1008.4 |
| 20260505004552 | 77 | 0 | 1.7 | 4.3 | 0.00 | 0.00 | 0.00 | 70 | 1008.3 |
| 20260505003055 | 77 | 92 | 0.0 | 2.6 | 0.00 | 0.00 | 0.00 | 70 | 1008.5 |